Regional Weather Roundup
Issued by NWS

Home | Current Version | Previous Version | Graphics & Text | Print | Product List | Glossary Off
Versions: 1 2 3 4 5 6 7 8 9 10 11 12 13 14 15 16 17 18 19 20 21 22 23 24 25 26 27 28 29 30 31 32 33 34 35 36 37 38 39 40 41 42 43 44 45 46 47 48 49 50

000
ASUS43 KTOP 280708
RWRKS

WEATHER ROUNDUP FOR KANSAS
NATIONAL WEATHER SERVICE GOODLAND KS
200 AM CDT WED JUN 28 2017

NOTE:  "FAIR" INDICATES FEW OR NO CLOUDS BELOW 12,000 FEET WITH NO
SIGNIFICANT WEATHER AND/OR OBSTRUCTIONS TO VISIBILITY.

KSZ001>006-013>018-027>032-041>047-280800-
NORTHWEST KANSAS

CITY           SKY/WX    TMP DP  RH WIND       PRES   REMARKS
GOODLAND       CLOUDY    69  59  70 VRB6      29.80R
HAYS           TSTM      75  66  73 SW12G22   29.85R
HILL CITY      LGT RAIN  76  59  55 W7G40     29.76F
RUSSELL        TSTM      80  63  55 W20G28    29.82R
$$

KSZ061>065-074>080-084>089-280800-
SOUTHWEST KANSAS

CITY           SKY/WX    TMP DP  RH WIND       PRES   REMARKS
DODGE CITY     CLOUDY    78  61  55 S22G32    29.81R
ELKHART          N/A     74  46  36 S22         N/A
GARDEN CITY    MOCLDY    77  59  53 N14       29.86R
GREAT BEND     MOCLDY    80  65  59 S23G30    29.80R
LIBERAL        CLEAR     76  60  57 S23       29.79F
PRATT          CLOUDY    75  63  66 S21G29    29.83R
$$

KSZ066>073-081>083-090>101-280800-
SOUTHEAST KANSAS

CITY           SKY/WX    TMP DP  RH WIND       PRES   REMARKS
CHANUTE          N/A    N/A N/A N/A MISG      29.91R
COFFEYVILLE    CLEAR     73  65  75 S9        29.92S
HUTCHINSON     CLOUDY    78  65  63 S20       29.81F
MEDICINE LODGE   N/A     78  66  66 S15G26    29.82R
NEWTON         MOCLDY    74  66  76 S21       29.84F
PARSONS        PTCLDY    74  65  73 S9G17     29.93S
WICHITA INTL   PTCLDY    77  67  71 S20       29.83F
WICHITA JABRA  PTCLDY    75  66  73 S17G25    29.85S
WICHITA MCCONL MOCLDY    76  65  67 S23G33    29.85S
WINFIELD       CLOUDY    75  67  76 S18G25    29.88S
$$

KSZ007>012-019>026-033>040-048>060-102>105-280800-
NORTHEAST KANSAS

CITY           SKY/WX    TMP DP  RH WIND       PRES   REMARKS
CONCORDIA      CLOUDY    79  65  62 S26G36    29.74S
EMPORIA        CLOUDY    73  65  75 S18G25    29.87S
LAWRENCE       PTCLDY    74  66  76 SE14G23   29.85F
MANHATTAN      MOCLDY    77  66  68 S20G29    29.77F
MARYSVILLE     CLOUDY    77  64  65 S22G29    29.74F
OLATHE IND     CLEAR     73  64  73 S15G21    29.89S
OLATHE EXE     CLEAR     72  65  78 S14       29.89R
SALINA         CLOUDY    80  65  59 S20G30    29.77F
TOPEKA BILLARD CLOUDY    76  66  71 S12       29.83F
TOPEKA FORBES  CLOUDY    77  65  66 S18G25    29.84F
$$



USA.gov is the U.S. government's official web portal to all federal, state and local government web resources and services.